Regional Weather Roundup
Issued by NWS

Home | Current Version | Previous Version | Graphics & Text | Print | Product List | Glossary On
Versions: 1 2 3 4 5 6 7 8 9 10 11 12 13 14 15 16 17 18 19 20 21 22 23 24 25 26 27 28 29 30 31 32 33 34 35 36 37 38 39 40 41 42 43 44 45 46 47 48 49 50
000
ASUS43 KLSX 300207
RWRMO
WEATHER SUMMARY FOR MISSOURI
NATIONAL WEATHER SERVICE SPRINGFIELD MO
900 PM CDT SAT APR 29 2017

NOTE: "FAIR" INDICATES FEW OR NO CLOUDS BELOW 12,000 FEET WITH NO
       SIGNIFICANT WEATHER AND/OR OBSTRUCTIONS TO VISIBILITY.
       CURRENT SKY AND/OR WEATHER CONDITIONS ARE NOT AVAILABLE FOR
       CHILLICOTHE AND FARMINGTON.

MOZ001>031-035>038-043-044-053-054-300300-
...NORTHERN AND WESTERN MISSOURI...

CITY           SKY/WX    TMP DP  RH WIND       PRES   REMARKS
KANSAS CTY INT RAIN      44  42  93 NE12      29.88R
KANSAS C DTWN  RAIN     N/A N/A N/A N6        29.90R
LEE`S SUMMIT   RAIN      45  45 100 E13       29.85R
ST JOSEPH      CLOUDY    44  44 100 NE13      29.92R
CHILLICOTHE      N/A     44  42  93 NE12G17   29.89F
KIRKSVILLE     CLOUDY    42  31  64 NE16G26   29.89F

$$
MOZ066>068-077>081-088>096-101>105-300300-
...SOUTHWEST MISSOURI...

CITY           SKY/WX    TMP DP  RH WIND       PRES   REMARKS
SPRINGFIELD    CLOUDY    64  62  93 S12       29.69F
JOPLIN         LGT RAIN  60  59  96 NE5       29.66R
BRANSON          N/A     63  63 100 NE6       29.71F

$$
MOZ032>034-039>042-045>050-055>058-069>072-300300-
...CENTRAL MISSOURI...

CITY           SKY/WX    TMP DP  RH WIND       PRES   REMARKS
COLUMBIA       LGT RAIN  49  49 100 E7        29.85F
JEFFERSON CITY RAIN      53  49  86 CALM      29.87S
ROLLA          RAIN      57  32  38 NE15      29.75F
SEDALIA        LGT RAIN  50  50 100 NE7       29.85R
WHITEMAN AFB   LGT RAIN  47  47 100 NE9       29.81R
OSAGE BEACH    RAIN      57  56  96 NE13      29.75F

$$
MOZ051-052-059>065-300300-
...EAST CENTRAL MISSOURI...

CITY           SKY/WX    TMP DP  RH WIND       PRES   REMARKS
ST LOUIS INTL  TSTM      53  50  89 NW6       29.91R FOG
SPIRIT OF STL  RAIN      52  52 100 CALM      29.90R FOG
ST CHARLES     RAIN      50  49  96 CALM      29.90R FOG

$$
MOZ072>076-082>087-097>100-106>115-300300-
...SOUTH CENTRAL AND SOUTHEAST MISSOURI...

CITY           SKY/WX    TMP DP  RH WIND       PRES   REMARKS
CAPE GIRARDEAU RAIN      65  62  90 NE9       29.86F FOG
FARMINGTON     TSTM      62  61  96 E6        29.87F FOG
POPLAR BLUFF   CLOUDY    67  64  90 N12G20    29.83R

$$



USA.gov is the U.S. government's official web portal to all federal, state and local government web resources and services.